[[{"header":{"parameterUnit":"m.s-1","parameterCategory":1,"la1":30.2991,"la2":30.254,"lo1":-89.0895,"lo2":-89.0444,"dy":0.0017,"dx":0.0017,"nx":28,"ny":28,"refTime":"2024-05-29T03:00:00:Z","depth":0,"parameterNumber":2,"parameterNumberName":"U-component_of_WINDS"},"data":[0,0,0,0,0,0,0,0,0,0,0,0,0,0,0,0,0,0,0,0,0,0,0,0,0,0,0,0,0,0,0,0,0,0,0,0,0,0,0,0,0,0,0,0,0,0,0,0,0,0,0,0,0,0,0,0,0,0,-1.095,-1.0951,0,-1.1046,-1.1047,-1.1048,-1.1077,-1.1076,-1.1076,-1.1075,-1.1175,-1.1178,-1.1181,0,0,0,0,0,0,0,0,0,0,0,0,0,-1.0792,-1.0794,-1.095,-1.0951,-1.0952,-1.1045,-1.1047,-1.1048,-1.1077,-1.1076,-1.1076,-1.1075,-1.1174,-1.1177,-1.1181,0,0,0,0,0,0,0,0,0,0,0,0,0,-1.0871,-1.0795,-1.0949,-1.0978,-1.0981,-1.1045,-1.1047,-1.1048,-1.1077,-1.1076,-1.1076,-1.1075,-1.1172,-1.1177,-1.1181,-1.1225,0,0,-1.1196,-1.1198,0,0,0,0,0,0,0,0,-1.0867,-1.0877,-1.0972,-1.0976,-1.098,-1.1049,-1.1028,-1.1108,-1.1077,-1.1041,-1.1075,-1.1075,-1.1133,-1.1141,-1.1161,-1.1229,-1.1233,-1.1196,-1.1199,-1.1201,-1.1202,0,0,0,0,0,0,0,-1.0861,-1.0873,-1.0988,-1.0974,-1.0978,-1.0986,-1.0996,-1.1043,-1.109,-1.1044,-1.1046,-1.1057,-1.1135,-1.1156,-1.1163,-1.1235,-1.1196,-1.12,-1.1203,-1.1205,-1.1344,-1.1345,0,0,0,0,0,0,-1.0851,-1.0868,-1.0985,-1.0991,-1.092,-1.0989,-1.1001,-1.1027,-1.1089,-1.1098,-1.1058,-1.1058,-1.1149,-1.1158,-1.1167,-1.1222,-1.1201,-1.1205,-1.1208,-1.1343,-1.1344,-1.1345,0,0,0,0,0,0,-1.0847,-1.0861,-1.0981,-1.093,-1.0946,-1.0993,-1.1022,-1.1029,-1.1051,-1.11,-1.1108,-1.107,-1.1148,-1.116,-1.121,-1.1226,-1.1207,-1.1211,-1.1342,-1.1343,-1.1344,-1.1332,0,0,0,0,0,0,-1.0843,-1.0859,-1.0876,-1.093,-1.0948,-1.1022,-1.1023,-1.1032,-1.1058,-1.106,-1.1114,-1.1122,-1.1149,-1.1203,-1.1215,-1.1232,-1.1215,-1.1341,-1.1342,-1.1344,-1.1331,-1.1332,-1.1334,0,0,0,0,0,-1.0837,-1.0869,-1.0877,-1.0891,-1.097,-1.1023,-1.1033,-1.1063,-1.1059,-1.1077,-1.1108,-1.1121,-1.1222,-1.1208,-1.1221,-1.124,-1.134,-1.1342,-1.1344,-1.133,-1.1332,-1.1334,0,0,0,0,0,0,-1.0816,-1.0877,-1.0886,-1.0937,-1.0974,-1.1028,-1.1051,-1.1064,-1.1103,-1.1103,-1.1138,-1.115,-1.1197,-1.1224,-1.1207,-1.1285,-1.1281,-1.1286,-1.1266,-1.1268,-1.127,-1.1263,-1.1219,0,0,0,0,0,-1.0817,-1.0854,-1.0905,-1.0945,-1.0963,-1.1004,-1.1028,-1.1047,-1.1088,-1.1104,-1.1139,-1.1178,-1.1219,-1.1245,-1.1285,-1.1334,-1.1347,-1.1354,-1.1355,-1.1356,-1.136,-1.1389,-1.1392,-1.1352,-1.1352,-1.1352,0,0,-1.082,-1.0858,-1.0879,-1.0942,-1.0973,-1.1011,-1.1017,-1.1057,-1.1086,-1.111,-1.1159,-1.1186,-1.1232,-1.1282,-1.1306,-1.1305,-1.1374,-1.1359,-1.1359,-1.1363,-1.1391,-1.1395,-1.1398,-1.1353,-1.1353,-1.1353,0,0,-1.0845,-1.0877,-1.0914,-1.0945,-1.0993,-1.1019,-1.1028,-1.1079,-1.1098,-1.1148,-1.1167,-1.1201,-1.1271,-1.1303,-1.1328,-1.1365,-1.1377,-1.1377,-1.1384,-1.1411,-1.1415,-1.1418,-1.1431,-1.1436,-1.138,-1.138,-1.138,0,-1.0843,-1.0901,-1.0931,-1.097,-1.0997,-1.102,-1.1058,-1.1087,-1.1145,-1.1163,-1.1162,-1.1249,-1.1282,-1.1339,-1.1348,-1.1368,-1.1379,-1.1371,-1.1412,-1.1415,-1.1418,-1.1432,-1.1437,-1.138,-1.138,-1.138,-1.138,0,-1.0896,-1.0936,-1.096,-1.1016,-1.1045,-1.1083,-1.1119,-1.1146,-1.1162,-1.1189,-1.1239,-1.1279,-1.1327,-1.1342,-1.1359,-1.1402,-1.14,-1.1405,-1.1402,-1.1421,-1.1434,-1.144,-1.1379,-1.1379,-1.138,-1.138,0,0,-1.0912,-1.0983,-1.0991,-1.1017,-1.1071,-1.1102,-1.1141,-1.1188,-1.1211,-1.125,-1.1284,-1.1341,-1.1346,-1.1374,-1.1395,-1.1418,-1.1445,-1.142,-1.1421,-1.1424,-1.1496,-1.1493,-1.1498,-1.1453,-1.1455,-1.1455,-1.1492,0,-1.0944,-1.1015,-1.1043,-1.1101,-1.1138,-1.116,-1.1194,-1.1231,-1.1257,-1.1292,-1.1321,-1.1361,-1.1363,-1.1381,-1.1405,-1.1437,-1.146,-1.1434,-1.1486,-1.1487,-1.1474,-1.1505,-1.1502,-1.1535,-1.1497,-1.1498,-1.1499,0,-1.0992,-1.1031,-1.1093,-1.1142,-1.1159,-1.1189,-1.1234,-1.1268,-1.131,-1.1327,-1.1358,-1.1377,-1.1419,-1.1413,-1.1471,-1.1453,-1.1476,-1.1494,-1.1496,-1.1503,-1.1495,-1.1513,-1.1546,-1.1551,-1.1507,-1.1507,-1.1506,0,-1.0998,-1.1066,-1.1112,-1.1133,-1.1191,-1.1212,-1.1237,-1.1278,-1.1305,-1.1345,-1.1362,-1.1406,-1.143,-1.1464,-1.1494,-1.1487,-1.155,-1.1546,-1.1566,-1.1565,-1.1579,-1.1578,-1.1616,-1.1592,-1.1592,-1.1592,-1.1592,0,-1.1032,-1.1068,-1.1115,-1.1143,-1.1185,-1.1216,-1.1257,-1.1284,-1.132,-1.1354,-1.1376,-1.1407,-1.1444,-1.1481,-1.1504,-1.1549,-1.156,-1.1575,-1.1581,-1.1574,-1.1572,-1.159,-1.1588,-1.1593,-1.1593,-1.1593,-1.1592,0,-1.1045,-1.1078,-1.1129,-1.118,-1.1194,-1.1223,-1.1266,-1.1294,-1.1321,-1.1363,-1.1375,-1.1416,-1.146,-1.1493,-1.155,-1.1566,-1.1614,-1.162,-1.1599,-1.1603,-1.162,-1.1618,-1.1673,-1.1681,-1.165,-1.165,-1.1651,0,-1.1065,-1.1094,-1.1148,-1.1172,-1.1197,-1.1236,-1.1263,-1.1295,-1.1322,-1.1372,-1.1394,-1.1439,-1.1477,-1.1545,-1.1581,-1.1624,-1.1632,-1.1648,-1.1639,-1.163,-1.1633,-1.1631,-1.1634,-1.1649,-1.1649,-1.1649,-1.165,0,-1.1097,-1.1112,-1.115,-1.1194,-1.1226,-1.1262,-1.1298,-1.1317,-1.1355,-1.1385,-1.1429,-1.1459,-1.1516,-1.1561,-1.1608,-1.1634,-1.1648,-1.1652,-1.1659,-1.1652,-1.1639,-1.1647,-1.1603,-1.1651,-1.1651,-1.1651,-1.1651,-1.1651,-1.1115,-1.1142,-1.1184,-1.1226,-1.1256,-1.129,-1.1319,-1.1349,-1.1386,-1.1436,-1.1452,-1.1498,-1.1539,-1.1604,-1.163,-1.1667,-1.1667,-1.1677,-1.168,-1.1682,-1.1682,-1.1633,-1.1676,-1.1676,-1.1676,-1.1676,-1.1676,0,-1.1148,-1.1176,-1.1214,-1.1265,-1.1298,-1.1308,-1.1349,-1.1376,-1.1416,-1.1453,-1.149,-1.1541,-1.1584,-1.1622,-1.1667,-1.1689,-1.1697,-1.17,-1.1699,-1.1705,-1.1679,-1.1668,-1.1693,-1.1693,-1.1693,-1.1693,-1.1693,-1.1693,-1.117,-1.1215,-1.1235,-1.1296,-1.1324,-1.1369,-1.1392,-1.1423,-1.1453,-1.1509,-1.1545,-1.1569,-1.1607,-1.1655,-1.1695,-1.1705,-1.1721,-1.1722,-1.1734,-1.1709,-1.1707,-1.1705,-1.1695,-1.1725,-1.1725,-1.1757,-1.1758,-1.1758]},{"header":{"parameterUnit":"m.s-1","parameterCategory":1,"la1":30.2991,"la2":30.254,"lo1":-89.0895,"lo2":-89.0444,"dy":0.0017,"dx":0.0017,"nx":28,"ny":28,"refTime":"2024-05-29T03:00:00:Z","depth":0,"parameterNumber":3,"parameterNumberName":"V-component_of_WINDS"},"data":[0,0,0,0,0,0,0,0,0,0,0,0,0,0,0,0,0,0,0,0,0,0,0,0,0,0,0,0,0,0,0,0,0,0,0,0,0,0,0,0,0,0,0,0,0,0,0,0,0,0,0,0,0,0,0,0,0,0,-2.4335,-2.4336,0,-2.4406,-2.4407,-2.4408,-2.4413,-2.4412,-2.4411,-2.4411,-2.448,-2.4483,-2.4485,0,0,0,0,0,0,0,0,0,0,0,0,0,-2.42,-2.4202,-2.4335,-2.4336,-2.4337,-2.4406,-2.4407,-2.4408,-2.4413,-2.4412,-2.4411,-2.441,-2.4479,-2.4482,-2.4486,0,0,0,0,0,0,0,0,0,0,0,0,0,-2.4264,-2.4203,-2.4335,-2.4348,-2.435,-2.4406,-2.4407,-2.4409,-2.4413,-2.4412,-2.4411,-2.441,-2.4478,-2.4482,-2.4486,-2.4533,0,0,-2.4498,-2.4499,0,0,0,0,0,0,0,0,-2.426,-2.4268,-2.4345,-2.4347,-2.4349,-2.44,-2.4385,-2.445,-2.4414,-2.4389,-2.4411,-2.4409,-2.4454,-2.446,-2.4476,-2.4537,-2.454,-2.4498,-2.45,-2.4502,-2.4503,0,0,0,0,0,0,0,-2.4256,-2.4265,-2.4363,-2.4346,-2.4349,-2.4349,-2.4357,-2.4398,-2.4427,-2.4391,-2.4392,-2.44,-2.4455,-2.4472,-2.4477,-2.4541,-2.4498,-2.4501,-2.4504,-2.4505,-2.4644,-2.4646,0,0,0,0,0,0,-2.4249,-2.4262,-2.4361,-2.4365,-2.4301,-2.4352,-2.4361,-2.4385,-2.4427,-2.4432,-2.4401,-2.44,-2.4466,-2.4473,-2.448,-2.4539,-2.4502,-2.4506,-2.4508,-2.4643,-2.4645,-2.4646,0,0,0,0,0,0,-2.4246,-2.4258,-2.4358,-2.4314,-2.4327,-2.4356,-2.4382,-2.4387,-2.4404,-2.4434,-2.4439,-2.4413,-2.4465,-2.4474,-2.452,-2.4541,-2.4507,-2.4511,-2.4641,-2.4644,-2.4645,-2.4657,0,0,0,0,0,0,-2.4242,-2.4257,-2.4276,-2.4314,-2.4329,-2.4398,-2.4384,-2.4389,-2.4411,-2.441,-2.4447,-2.4452,-2.4465,-2.4515,-2.4524,-2.4546,-2.4514,-2.464,-2.4642,-2.4645,-2.4655,-2.4659,-2.4662,0,0,0,0,0,-2.4237,-2.4275,-2.4277,-2.4289,-2.4354,-2.44,-2.4408,-2.4423,-2.4412,-2.4432,-2.4451,-2.4451,-2.4537,-2.4519,-2.453,-2.4553,-2.4638,-2.4642,-2.4645,-2.4653,-2.4658,-2.4662,0,0,0,0,0,0,-2.4237,-2.428,-2.4283,-2.4334,-2.4363,-2.44,-2.4425,-2.4428,-2.446,-2.4458,-2.4474,-2.4482,-2.4528,-2.4545,-2.4524,-2.4602,-2.4587,-2.4592,-2.4589,-2.4594,-2.4598,-2.4593,-2.4517,0,0,0,0,0,-2.4243,-2.4278,-2.4314,-2.4356,-2.437,-2.4395,-2.4416,-2.4425,-2.4455,-2.4467,-2.449,-2.4519,-2.4553,-2.4574,-2.4607,-2.4657,-2.4665,-2.4678,-2.4682,-2.4685,-2.469,-2.4718,-2.4724,-2.4656,-2.4656,-2.4656,0,0,-2.4256,-2.4284,-2.4305,-2.4356,-2.438,-2.4415,-2.4405,-2.4442,-2.4468,-2.4472,-2.4518,-2.4536,-2.4569,-2.4617,-2.464,-2.4633,-2.471,-2.4689,-2.4691,-2.4694,-2.4722,-2.4728,-2.4734,-2.4658,-2.4658,-2.4658,0,0,-2.4297,-2.4322,-2.436,-2.4384,-2.4421,-2.4437,-2.4446,-2.4483,-2.4496,-2.4542,-2.4546,-2.4576,-2.4633,-2.4657,-2.4676,-2.4727,-2.4728,-2.4737,-2.4758,-2.4785,-2.479,-2.4795,-2.4814,-2.482,-2.4741,-2.4741,-2.4741,0,-2.4308,-2.4362,-2.4379,-2.4417,-2.4439,-2.4446,-2.4484,-2.4506,-2.4551,-2.4566,-2.4558,-2.4631,-2.4653,-2.4708,-2.472,-2.4736,-2.4746,-2.4733,-2.4789,-2.4794,-2.4798,-2.4816,-2.4823,-2.4742,-2.4742,-2.4742,-2.4742,0,-2.4374,-2.4411,-2.4437,-2.4482,-2.4507,-2.4545,-2.4567,-2.459,-2.4597,-2.4614,-2.4661,-2.4688,-2.4727,-2.474,-2.4747,-2.4796,-2.479,-2.4785,-2.477,-2.4805,-2.4822,-2.4829,-2.4744,-2.4743,-2.4743,-2.4743,0,0,-2.4416,-2.4471,-2.448,-2.4501,-2.4542,-2.4571,-2.4608,-2.4647,-2.4667,-2.4698,-2.473,-2.4779,-2.4774,-2.4796,-2.4806,-2.483,-2.4869,-2.4822,-2.4823,-2.483,-2.4924,-2.4928,-2.4936,-2.4869,-2.4871,-2.4872,-2.4922,0,-2.4463,-2.4532,-2.4548,-2.4607,-2.4642,-2.4649,-2.4682,-2.471,-2.4727,-2.4758,-2.4775,-2.481,-2.4802,-2.4815,-2.4839,-2.4859,-2.4888,-2.4855,-2.4899,-2.49,-2.4891,-2.4945,-2.4949,-2.4995,-2.4928,-2.4929,-2.493,0,-2.4526,-2.4559,-2.4622,-2.4659,-2.4674,-2.4704,-2.4741,-2.4771,-2.4803,-2.4813,-2.4839,-2.4846,-2.4885,-2.4868,-2.4921,-2.4899,-2.4917,-2.493,-2.4932,-2.4937,-2.4917,-2.4951,-2.5009,-2.5016,-2.4941,-2.494,-2.4939,0,-2.4551,-2.4612,-2.4658,-2.4675,-2.4719,-2.474,-2.4759,-2.479,-2.4813,-2.4845,-2.486,-2.4895,-2.4915,-2.4942,-2.4958,-2.4945,-2.5011,-2.4995,-2.502,-2.502,-2.5034,-2.5033,-2.5096,-2.5045,-2.5045,-2.5045,-2.5045,0,-2.4601,-2.4639,-2.467,-2.4698,-2.4741,-2.4759,-2.48,-2.4819,-2.4847,-2.4878,-2.4886,-2.4915,-2.4934,-2.4966,-2.4978,-2.5021,-2.503,-2.5039,-2.5042,-2.5038,-2.5037,-2.5051,-2.5048,-2.5047,-2.5046,-2.5046,-2.5046,0,-2.4637,-2.4659,-2.471,-2.4748,-2.4758,-2.4788,-2.4821,-2.4848,-2.4865,-2.4904,-2.4914,-2.4941,-2.4978,-2.4998,-2.5044,-2.5052,-2.51,-2.5101,-2.509,-2.5091,-2.5115,-2.5113,-2.519,-2.5201,-2.5142,-2.5143,-2.5143,0,-2.4668,-2.4698,-2.474,-2.4762,-2.4782,-2.4817,-2.4841,-2.486,-2.4884,-2.4923,-2.4945,-2.4983,-2.5015,-2.5074,-2.5097,-2.5132,-2.5134,-2.5159,-2.5139,-2.5135,-2.5135,-2.5133,-2.5136,-2.5162,-2.5163,-2.5163,-2.5163,0,-2.472,-2.473,-2.4764,-2.4803,-2.4831,-2.4862,-2.4892,-2.491,-2.4933,-2.4959,-2.4999,-2.5023,-2.5071,-2.5109,-2.5146,-2.5165,-2.5168,-2.5169,-2.5177,-2.5174,-2.5167,-2.5172,-2.51,-2.5168,-2.5167,-2.5167,-2.5167,-2.5166,-2.4755,-2.4782,-2.4816,-2.4854,-2.4879,-2.4908,-2.4935,-2.4957,-2.499,-2.5032,-2.504,-2.5082,-2.5113,-2.5163,-2.5183,-2.5215,-2.521,-2.5221,-2.5224,-2.5226,-2.5228,-2.5162,-2.5222,-2.5222,-2.5222,-2.5222,-2.5222,0,-2.4808,-2.4831,-2.4866,-2.4909,-2.4939,-2.494,-2.4974,-2.4999,-2.5036,-2.5065,-2.5096,-2.5141,-2.5178,-2.5204,-2.5241,-2.5262,-2.5264,-2.5271,-2.527,-2.5274,-2.523,-2.522,-2.5269,-2.5268,-2.5268,-2.5268,-2.5268,-2.5268,-2.4839,-2.4886,-2.4899,-2.4958,-2.498,-2.5022,-2.5041,-2.5067,-2.5091,-2.5141,-2.5172,-2.5189,-2.5217,-2.5257,-2.529,-2.5297,-2.531,-2.5317,-2.5323,-2.5282,-2.5277,-2.5272,-2.5263,-2.532,-2.532,-2.5365,-2.5365,-2.5365]}]]